Simultaneous Nadir Overpasses (SNOs) Predictions

Prediction of SNOs between METOP-B and TERRA Satellite Orbit:

Table of predicted SNOs for the next 14.0 days since TLE Epoch: 11/22/2014
Index Date (METOP-B) Time (METOP-B) Lat,Lon (METOP-B) SZA (METOP-B ) Date (TERRA) Time (TERRA) Lat,Lon (TERRA) SZA (TERRA ) Distance(km) Time Diff (sec)
1 11/24/2014 20:10:26 -81.27, 104.16 75.12 11/24/2014 20:10:33 -81.28, 104.27 75.10 2.22 7
2 11/24/2014 21:01:06 81.27, -88.28 104.92 11/24/2014 21:00:00 81.26, -88.37 104.87 1.91 66
3 11/27/2014 14:54:11 81.26, 2.63 105.31 11/27/2014 14:55:24 81.26, 2.74 105.36 1.98 73
4 11/27/2014 15:44:51 -81.27, 170.41 74.63 11/27/2014 15:44:51 -81.26, 170.37 74.64 1.07 0
5 11/27/2014 16:35:29 81.28, -21.29 105.50 11/27/2014 16:34:15 81.31, -21.18 105.49 3.34 74
6 11
